HST
1 20580U 90037B   24132.68568539  .00023621  00000-0  11438-2 0  9999
2 20580  28.4680 229.6020 0002410  11.2087 348.8559 15.17223185671485
ISS (ZARYA)
1 25544U 98067A   24133.40046916  .00034078  00000-0  57671-3 0  9994
2 25544  51.6383 132.8068 0003345 161.0373 358.7827 15.51234309452994
CXO
1 25867U 99040B   24133.48325748  .00000624  00000-0  00000+0 0  9995
2 25867  40.3932 157.1734 8928898 294.0177 359.6485  0.37809329 25582